This is the latest recevied weather packets stored in our database for station/object F6BIJ-13. If no packets are shown the sender has not sent any weather packets the latest 10 day(s).
| Time | Temp. | Humidity | Pressure | Rain* | Wind** | Luminosity | Snow |
|---|---|---|---|---|---|---|---|
| 1777756717 | 16.11° C | 58% | 1019.3 hPa | 0 mm | - | - | - |
| 1777756357 | 16.67° C | 59% | 1019.3 hPa | 0 mm | - | - | - |
| 1777755997 | 16.11° C | 58% | 1019.3 hPa | 0 mm | - | - | - |
| 1777755637 | 16.67° C | 57% | 1019.4 hPa | 0 mm | - | - | - |
| 1777755277 | 15.56° C | 57% | 1019.3 hPa | 0 mm | - | - | - |
| 1777754917 | 16.67° C | 56% | 1019.2 hPa | 0 mm | - | - | - |
| 1777754557 | 16.67° C | 58% | 1019.3 hPa | 0 mm | - | - | - |
| 1777754197 | 16.67° C | 59% | 1019.2 hPa | 0 mm | - | - | - |
| 1777753837 | 16.67° C | 56% | 1019.3 hPa | 0 mm | - | - | - |
| 1777753476 | 17.22° C | 57% | 1019.3 hPa | 0 mm | - | - | - |
| 1777753117 | 16.67° C | 57% | 1019.3 hPa | 0 mm | - | - | - |
| 1777752757 | 17.22° C | 56% | 1019.2 hPa | 0 mm | - | - | - |
| 1777752397 | 17.22° C | 53% | 1019.3 hPa | 0 mm | - | - | - |
| 1777752037 | 17.78° C | 54% | 1019.3 hPa | 0 mm | - | - | - |
| 1777751676 | 17.78° C | 53% | 1019.3 hPa | 0 mm | - | - | - |
| 1777751316 | 17.78° C | 53% | 1019.4 hPa | 0 mm | - | - | - |
| 1777750957 | 17.78° C | 53% | 1019.4 hPa | 0 mm | - | - | - |
| 1777750597 | 17.78° C | 52% | 1019.4 hPa | 0 mm | - | - | - |
| 1777750237 | 17.78° C | 52% | 1019.5 hPa | 0 mm | - | - | - |
| 1777749877 | 18.33° C | 51% | 1019.3 hPa | 0 mm | - | - | - |
| 1777749517 | 17.78° C | 51% | 1019.2 hPa | 0 mm | - | - | - |
| 1777749157 | 17.78° C | 51% | 1019.1 hPa | 0 mm | - | - | - |
| 1777748797 | 18.33° C | 51% | 1019.1 hPa | 0 mm | - | - | - |
| 1777748437 | 18.33° C | 51% | 1019 hPa | 0 mm | - | - | - |
| 1777748076 | 18.33° C | 50% | 1018.9 hPa | 0 mm | - | - | - |
* Rain latest 24 hours (hover to see other rain measurements)
** Current wind speed in m/s (hover to see current wind gust speed)